Showing default

CAPELLA-17 (ACADIA), 64583

Orbit data source: Space-Track

CAPELLA-17 (ACADIA), 64583 is a payload satellite owned by Capella Space (US) in SSO that was launched on Mon, 23 Jun 2025 UTC via an FALCON 9 launch vehicle from the Air Force Western Test Range (AFWTR). Payload-class satellites include a variety of spacecraft equipped with specific instruments for various scientific and technological missions. These include communications satellites like Starlink; space stations such as the ISS; scientific satellites like the Hubble; Earth observation satellites from companies like Planet Labs, Umbra, and HawkEye 360; GPS; miniature CubeSats for education and research; and military/defense satellites.

Loading next visibility...
Identifier
64583, 2025-135BH
Orbit
SSO
Country
Flag of USUS
Related business
Manufacturer
Capella Space
Mission
Operational Commercial Radar Imaging
Bus & Motor
ACADIA, Unknown motor
Mass
180 kg wet, ~150 kg dry
Launch date (UTC)
2025-06-23 (4 months ago)
Launch vehicle
FALCON 9
Launch site
Air Force Western Test Range (AFWTR)
Object type
Payload
Rocket body
Debris
Shape & HBR
Box + 2 Pan + 1 Dish + 1 Rod, 1.8 m
Radar Cross Section
0.463 m², Large (>1 m²)

Expand to show TLE details & history
Last TLE update: 8 hours ago

TLE from 8 hours ago
0 CAPELLA-17 (ACADIA)
1 64583U 25135BH  25293.86032508  .00014311  00000-0  13443-2 0  9992
2 64583  97.7548  46.4060 0004333  62.7693 297.3968 14.94037945 18182
Epoch: 2025-10-20T20:38Z
TLE epoch observation values (Epoch: 2025-10-20T20:38:52.086Z)
Latitude
-0.00006°
Longitude
67.13241°
Altitude
587.018 km
Speed
7.567 km/s
True Right ascension
03h 05m 37s
True Declination
0° 00' 00"
Sunlit
Object was in full shadow at epoch
Visualization orbit readout
Latitude
Unknown
Longitude
Unknown
Altitude
Unknown
Speed
Unknown
Apparent Right ascension
Unknown
Apparent Declination
Unknown
Sunlit
N/A
Visualization observer readout
Local Sidereal Time
23:16:25
Azimuth
Unknown
Elevation
Unknown
Doppler factor
Unknown
Orbital elements
Apogee altitude
585.392 km
Perigee altitude
579.36 km
Semi-major axis
6,960.513 km
Eccentricity
0.00043
Inclination
97.7548°
RAAN
46.406°
Arg. of periapsis
62.7693°
True anomaly
297.35271°
Mean anomaly
297.3968°
Eccentric anomaly
297.37475°
Mean motion
3.7375 °/min
Orbital period
96.32 mins
BSTAR
0.0013443
Loading maneuver chart data...
Computing Atmospheric mass density...
Loading historical data...
Loading historical data...
Loading historical data...
Loading historical data...
Loading historical data...
Loading historical data...
Loading historical data...

Documentation

Showing up to 5 results
|